Location: Coopersdale
(40.3556°N, 78.9372°W)
Time: 08:43:07
(UTC+00:00)

Envisat - Pass Details

Date: 28 November 2020
Orbit: 764 x 766 km, 98.1° (Epoch: 15 January)

Event Time Altitude Azimuth Distance (km) Brightness Sun altitude
Rises 23:25:47 0° 203° (SSW) 3,218 6.8 -17.7°
Reaches altitude 10° 23:28:39 10° 220° (SW) 2,297 6.2 -18.3°
Maximum altitude 23:32:20 20° 267° (W) 1,705 5.7 -19.0°
Drops below altitude 10° 23:36:04 10° 315° (NW) 2,310 5.9 -19.6°
Sets 23:38:59 0° 332° (NNW) 3,241 6.5 -20.2°
